#timestamp,LO_Frequency,Hit,StdDev 
1567958415.4,286047014.9,N
1567958435.2,286047012.6,N
1567958455.1,286047011.6,N
1567958456.0,286047011.6,N
1567958475.8,286047010.2,N
1567958495.6,286047008.9,N
1567958515.5,286047004.6,N
1567958535.3,286047006.7,N
1567958555.2,286047006.1,N
1567958575.9,286047004.5,N
1567958595.7,286047007.1,N
1567958615.6,286047004.5,N
1567958635.4,286047003.2,N
1567958655.2,286047005.9,N
1567958675.1,286047005.1,N
1567958676.0,286047005.1,N
1567958695.8,286047005.2,N
1567958715.7,286047003.5,N
1567958735.5,286047004.0,N
1567958755.3,286047003.8,N
1567958775.2,286047001.5,N
1567958795.9,286047004.4,N
1567958815.7,286047004.0,N
1567958835.6,286047001.6,N
1567958855.4,286047002.0,N
1567958875.2,286047001.5,N
1567958895.1,286047001.4,N
1567958896.0,286047001.4,N
1567958915.8,286047001.4,N
1567958935.7,286047005.4,N
1567958955.5,286047005.1,N
1567958975.3,286047002.9,N
1567958995.2,286047003.3,N
1567959015.0,286047005.5,N
1567959015.9,286047005.5,N
1567959035.8,286047003.5,N
1567959055.6,286047004.3,N
1567959075.4,286047004.2,N
1567959095.3,286047003.5,N
1567959115.1,286047005.5,Y
1567959135.8,286047000.9,P
1567959155.7,286046998.2,N
1567959175.5,286046999.6,N
1567959195.4,286047000.8,N
1567959215.2,286047000.6,N
1567959235.0,286047001.7,N
1567959235.9,286047001.7,N
1567959255.8,286047001.7,N
1567959275.6,286047000.2,N
1567959295.4,286047002.6,N
1567959315.3,286047002.0,N
1567959335.1,286047001.5,N
1567959355.9,286047003.7,N
1567959375.7,286047003.8,N
1567959395.5,286047003.7,N
1567959415.4,286047001.5,N
1567959435.2,286047003.5,N
1567959455.0,286047005.2,Y
1567959455.9,286047005.2,P
1567959475.8,286047004.3,N
1567959495.6,286047004.1,N
1567959515.5,286047007.5,Y
1567959535.3,286047003.2,P
1567959555.1,286047004.7,P
1567959575.9,286047006.6,P
1567959595.7,286047010.0,Y
1567959615.6,286047005.1,P
1567959635.4,286047002.0,P
1567959655.2,286047001.5,N
1567959675.1,286046997.0,N
1567959676.0,286046997.0,N
1567959695.8,286046994.5,N
1567959715.7,286046992.4,N
1567959735.5,286046991.7,N
1567959755.3,286046995.2,N
1567959775.2,286046996.4,N
1567959795.9,286046993.0,N
1567959815.7,286046986.6,Y
1567959835.6,286046986.3,P
1567959855.4,286046985.5,N
1567959875.3,286046987.6,N
1567959895.1,286046989.0,N
1567959896.0,286046989.0,N
1567959915.8,286046991.1,N
1567959935.7,286046993.8,N
1567959955.5,286046996.7,N
1567959975.3,286046996.5,N
1567959995.2,286046997.2,N
1567960015.0,286046999.5,N
1567960015.9,286046999.5,N
1567960035.8,286046996.7,N
1567960055.6,286046996.9,N
1567960075.4,286046999.5,N
1567960095.3,286046998.3,N
1567960115.1,286046998.9,N
1567960135.8,286047000.8,N
1567960155.7,286047002.1,N
1567960175.5,286047001.5,N
1567960195.4,286047003.7,N
1567960215.2,286047003.2,N
1567960235.0,286047004.3,N
1567960235.9,286047004.3,N
1567960255.8,286047001.9,N
1567960275.6,286047001.9,N
1567960295.4,286047002.0,N
1567960315.3,286047002.0,N
1567960335.1,286047000.9,N
1567960355.9,286046999.3,N
1567960375.7,286046997.0,N
1567960395.5,286046996.6,N
1567960415.4,286046998.5,N
1567960435.2,286047002.0,N
1567960455.0,286047003.4,N
1567960455.9,286047003.4,N
1567960475.8,286047003.4,N
1567960495.6,286047001.9,N
1567960515.5,286047002.7,N
1567960535.3,286047001.9,N
1567960555.1,286046999.7,N
1567960575.9,286047000.8,N
1567960595.7,286046998.4,N
1567960615.6,286046998.8,N
1567960635.4,286047000.5,N
1567960655.2,286047005.6,N
1567960675.1,286047008.5,Y
1567960676.0,286047008.5,P
1567960695.8,286047002.9,N
1567960715.6,286047001.7,N
1567960735.5,286047002.5,N
1567960755.3,286047002.0,N
1567960775.2,286047000.1,N
1567960795.9,286047003.6,N
1567960815.7,286047007.3,Y
1567960835.6,286047005.0,P
1567960855.4,286047006.7,P
1567960875.2,286047005.0,P
1567960895.1,286047006.5,Y
1567960896.0,286047006.5,P
1567960915.8,286047005.4,P
1567960935.7,286047008.8,P
1567960955.5,286047011.9,Y
1567960975.3,286047009.7,P
1567960995.2,286047012.0,P
1567961015.0,286047007.9,P
1567961015.9,286047007.9,Y
1567961035.8,286046996.5,P
1567961055.6,286046997.6,N
1567961075.4,286046997.5,N
1567961095.3,286046997.8,N
1567961115.1,286046996.6,N
1567961135.8,286046999.1,N
1567961155.7,286046996.9,N
1567961175.5,286046996.3,N
1567961195.4,286046996.6,N
1567961215.2,286047001.2,N
1567961235.0,286046999.7,N
1567961235.9,286046999.7,N
1567961255.8,286047003.4,N
1567961275.6,286047005.7,N
1567961295.4,286047003.3,N
1567961315.3,286047001.8,N
1567961335.1,286047003.9,N
1567961355.9,286047002.5,N
1567961375.7,286047000.3,N
1567961395.5,286047002.4,N
1567961415.4,286047000.2,N
1567961435.2,286047000.5,N
1567961455.0,286047001.8,N
1567961455.9,286047001.8,N
1567961475.8,286047005.2,N
1567961495.6,286047002.7,N
1567961515.5,286046999.6,N
1567961535.3,286046997.2,N
1567961555.1,286046995.1,N
1567961575.9,286046995.8,N
1567961595.7,286046995.4,N
1567961615.5,286046997.8,N
1567961635.4,286046995.4,N
1567961655.2,286046999.1,N
1567961675.1,286046996.7,N
1567961676.0,286046996.7,N
1567961695.8,286046997.5,N
1567961715.6,286046996.6,N
1567961735.5,286046997.5,N
1567961755.3,286046999.6,N
1567961775.2,286046997.7,N
1567961795.9,286046997.4,N
1567961815.7,286046996.2,N
1567961835.6,286046995.0,N
1567961855.4,286046997.5,N
1567961875.3,286046997.9,N
1567961895.1,286046997.0,N
1567961896.0,286046997.0,N
1567961915.8,286046998.4,N
1567961935.7,286046998.4,N
1567961955.5,286046999.0,N
1567961975.3,286047000.8,N
1567961995.2,286046999.4,N
